Regional Weather Roundup
Issued by NWS

Home | Current Version | Previous Version | Graphics & Text | Print | Product List | Glossary On
Versions: 1 2 3 4 5 6 7 8 9 10 11 12 13 14 15 16 17 18 19 20 21 22 23 24 25 26 27 28 29 30 31 32 33 34 35 36 37 38 39 40 41 42 43 44 45 46 47 48 49 50
000
ASUS43 KLSX 280907
RWRMO

WEATHER SUMMARY FOR MISSOURI
NATIONAL WEATHER SERVICE SPRINGFIELD MO
400 AM CDT THU AUG 28 2014

NOTE: "FAIR" INDICATES FEW OR NO CLOUDS BELOW 12,000 FEET WITH NO
       SIGNIFICANT WEATHER AND/OR OBSTRUCTIONS TO VISIBILITY.
       CURRENT SKY AND/OR WEATHER CONDITIONS ARE NOT AVAILABLE FOR
       CHILLICOTHE AND FARMINGTON.

MOZ001>031-035>038-043-044-053-054-281000-
...NORTHERN AND WESTERN MISSOURI...

CITY           SKY/WX    TMP DP  RH WIND       PRES   REMARKS
KANSAS CTY INT MOCLDY    75  72  90 SE8       29.98F
KANSAS C DTWN  MOCLDY    78  72  81 SE5       29.96F
LEE`S SUMMIT   MOCLDY    75  72  90 SE5       29.99F
ST JOSEPH      CLOUDY    73  71  93 N5        29.98S
CHILLICOTHE      N/A     74  71  91 VRB3      30.01F
KIRKSVILLE     CLOUDY    71  70  96 E6        30.04F

$$
MOZ066>068-077>081-088>096-101>105-281000-
...SOUTHWEST MISSOURI...

CITY           SKY/WX    TMP DP  RH WIND       PRES   REMARKS
SPRINGFIELD    PTCLDY    75  69  81 S8        30.03S
JOPLIN         CLEAR     75  69  81 S8        30.00F

$$
MOZ032>034-039>042-045>050-055>058-069>072-281000-
...CENTRAL MISSOURI...

CITY           SKY/WX    TMP DP  RH WIND       PRES   REMARKS
COLUMBIA       PTCLDY    70  68  93 SE6       30.02F
JEFFERSON CITY CLEAR     69  67  93 SE6       30.01F
ROLLA          CLEAR     71  67  87 S7        30.03S
SEDALIA        PTCLDY    71  68  90 SE6       30.00F
WHITEMAN AFB   MOCLDY    71  52  51 E2        29.99S
OSAGE BEACH    CLEAR     72  66  83 SE5       30.02S

$$
MOZ051-052-059>065-281000-
...EAST CENTRAL MISSOURI...

CITY           SKY/WX    TMP DP  RH WIND       PRES   REMARKS
ST LOUIS INTL  PTCLDY    74  70  87 CALM      30.05S
SPIRIT OF STL  CLEAR     70  69  97 CALM      30.04R FOG
ST CHARLES     CLEAR     71  69  93 CALM      30.03S

$$
MOZ072>076-082>087-097>100-106>115-281000-
...SOUTH CENTRAL AND SOUTHEAST MISSOURI...

CITY           SKY/WX    TMP DP  RH WIND       PRES   REMARKS
CAPE GIRARDEAU PTCLDY    73  72  96 CALM      30.02F FOG
FARMINGTON     CLEAR     70  68  94 CALM      30.07S
POPLAR BLUFF   CLEAR     74  70  87 CALM      30.01F FOG
WEST PLAINS    CLEAR     72  67  84 CALM      30.07F

$$



USA.gov is the U.S. government's official web portal to all federal, state and local government web resources and services.